Hourly Data Report for August 09, 2022

TORONTO CITY
ONTARIO
Current Station Operator: ECCC - MSC

43°40'00.000" N
79°24'00.000" W
112.50 m
6158355
71508
XTO

Download Data

Hourly Data (August 2022)
Hourly Data Report for August 9, 2022
TIME
LST
Temp Definition
°C
Dew Point Definition
°C
Rel Hum Definition
%
Precip. Amount Definition
mm

Wind Dir Definition
10's deg

Wind Spd Definition
km/h
Visibility Definition
km
Stn Press Definition
kPa
Hmdx Definition


Wind Chill Definition


Weather Definition


00:00 22.0 17.0 73 0.0       99.77 27   LegendNANA
01:00 20.1 15.4 74 0.0       99.81     LegendNANA
02:00 19.8 15.0 74 0.0       99.84     LegendNANA
03:00 19.4 14.8 75 0.0       99.91     LegendNANA
04:00 18.9 14.6 76 0.0       99.92     LegendNANA
05:00 19.0 14.3 74 0.0       100.00     LegendNANA
06:00 18.9 14.1 74 0.0       100.11     LegendNANA
07:00 18.8 14.1 74 0.0       100.19     LegendNANA
08:00 19.1 14.2 73 0.0       100.27     LegendNANA
09:00 19.4 14.9 75 0.0       100.31     LegendNANA
10:00 19.5 14.7 74 0.0       100.35     LegendNANA
11:00 20.4 14.4 69 0.0       100.36     LegendNANA
12:00 21.2 14.3 65 0.0       100.38 25   LegendNANA
13:00 21.4 13.9 62 0.0       100.38 25   LegendNANA
14:00 21.4 14.3 64 0.0       100.39 25   LegendNANA
15:00 21.6 14.3 63 0.0       100.37 25   LegendNANA
16:00 22.3 13.9 59 0.0       100.36 26   LegendNANA
17:00 22.1 13.6 59 0.0       100.37 25   LegendNANA
18:00 22.2 13.4 58 0.0       100.36 25   LegendNANA
19:00 21.8 13.7 60 0.0       100.41 25   LegendNANA
20:00 20.8 15.2 70 0.0       100.44 25   LegendNANA
21:00 20.6 14.0 66 0.0       100.47     LegendNANA
22:00 20.1 14.0 68 0.0       100.49     LegendNANA
23:00 19.6 13.9 70 0.0       100.52     LegendNANA

Notes on Data Quality.

Legend

  • E = Estimated
  • M = Missing
  • NA = Not Available*
  • [empty] = Indicates an unobserved value
Date modified: